Location: Terra Rouge Observatory
(46.0000°N, 62.7500°W)
Time: 01:05:23
(UTC-04:00)

Daily predictions for brighter satellites

Satellite Brightness Start Highest point End
(mag) Time Altitude Azimuth Time Altitude Azimuth Time Altitude Azimuth
ADEOS II 4.3 03:08:22 10° NE 03:11:52 21° E 03:11:52 21° E
Cosmos 2369 Rocket 4.0 03:16:29 26° E 03:16:29 26° E 03:20:14 10° NE
USA 234 4.5 03:14:28 10° ENE 03:19:43 32° ESE 03:19:43 32° ESE
ADEOS Rocket 4.1 03:24:13 10° NNE 03:28:40 42° N 03:28:40 42° N
Lacrosse 5 4.2 03:42:13 17° ESE 03:42:13 17° ESE 03:45:22 10° E
ATLAS 5 CENTAUR R/B 3.4 03:59:01 30° ESE 03:59:01 30° ESE 04:03:26 10° NE
Cosmos 1867 4.1 04:01:21 56° ENE 04:01:21 56° ENE 04:05:55 10° NE
CZ-4B R/B 3.6 03:55:50 10° NNE 04:01:22 60° ESE 04:01:30 60° ESE
Cosmos 1943 Rocket 3.6 04:04:38 24° SSE 04:06:53 34° ESE 04:11:49 10° NE
Cosmos 1190 Rocket 4.5 04:10:04 43° N 04:11:32 58° ENE 04:16:43 10° SE
Okean O Rocket 3.5 04:11:50 10° NNE 04:13:26 22° N 04:13:26 22° N
PAYLOAD B 4.1 04:22:33 10° NNE 04:28:03 78° WNW 04:28:03 78° WNW
Cosmos 1624 Rocket 4.2 04:27:36 57° SSE 04:28:35 70° ESE 04:33:54 10° NNE
Cosmos 2056 Rocket 3.7 04:28:47 53° SSE 04:29:48 66° ESE 04:34:58 10° NNE
Cosmos 2266 Rocket 3.8 04:23:55 10° NNW 04:30:06 75° W 04:36:08 10° S
MOS 1 Rocket 4.2 04:32:59 10° N 04:37:02 42° NNW 04:37:02 42° NNW
COSMO-SKYMED 1 4.4 04:34:45 10° SE 04:38:36 32° ENE 04:42:27 10° N
Cosmos 972 Rocket 3.9 04:38:30 62° SSW 04:39:24 88° ESE 04:44:54 10° NNE
CZ-4B DEB 4.1 04:37:17 10° N 04:42:47 66° WNW 04:43:21 61° WSW
Meteor 1-31 Rocket 3.3 04:42:44 10° NNE 04:46:37 59° E 04:47:45 40° SSE
Cosmos 2219 4.3 04:44:48 10° NNW 04:50:14 43° NE 04:55:36 10° SE
ADEOS II 2.1 04:47:15 10° N 04:52:24 56° WNW 04:52:50 54° W
Thor Agena Rocket 3.4 04:50:59 10° SSE 04:56:13 88° WSW 05:01:25 10° NNW
Abrixas 3.9 04:57:33 36° E 04:57:33 36° E 04:59:27 10° ENE
Cosmos 1371 Rocket 4.0 04:57:25 53° W 04:58:01 56° WNW 05:03:08 10° NNE
ATLAS CENTAUR R/B 3.7 04:57:38 38° WSW 04:59:10 43° SW 05:12:36 10° SSE
Cosmos 2369 Rocket 2.4 04:58:19 46° W 04:59:16 52° WNW 05:04:49 10° NNE
CZ-4B R/B 3.8 04:56:38 10° NNE 05:00:33 81° ESE 05:02:53 25° S
Sich 1 Rocket 3.5 04:56:11 10° NNW 05:00:44 71° W 05:05:12 10° S
USA 234 3.2 04:57:06 10° NE 05:03:39 83° NNW 05:07:05 31° WSW
CZ-4C R/B 3.4 05:01:03 10° S 05:05:56 39° ESE 05:11:24 10° NE
Cosmos 1908 Rocket 3.5 05:03:53 10° NNW 05:08:19 62° W 05:12:44 10° S
Okean-O 2.5 05:04:01 10° N 05:08:29 79° WNW 05:11:37 19° SSW
Okean 1-7 3.7 05:06:04 10° S 05:10:14 56° E 05:14:25 10° NNE
Cosmos 1452 Rocket 3.9 05:06:04 10° S 05:11:16 65° ESE 05:16:32 10° NNE
Cosmos 1244 Rocket 4.4 05:05:47 10° NNW 05:12:03 75° W 05:18:12 10° S
Tiangong 1 3.2 05:11:57 16° SSE 05:12:23 17° SSE 05:14:23 10° ESE
Cosmos 1782 Rocket 3.5 05:09:13 10° N 05:13:44 89° ENE 05:18:11 10° S
Cosmos 1933 4.0 05:14:59 36° NW 05:14:59 36° NW 05:18:07 10° N
Cosmos 1656 Rocket 4.3 05:10:01 10° S 05:15:33 57° ESE 05:21:07 10° NNE
Cosmos 1833 4.2 05:10:45 10° NNW 05:16:14 57° WSW 05:21:41 10° S
Meteor PRIRODA 4.4 05:14:36 10° N 05:17:21 36° NW 05:17:21 36° NW
Cosmos 921 Rocket 4.2 05:22:08 25° NW 05:22:08 25° NW 05:25:07 10° N
Cosmos 1023 Rocket 4.5 05:16:32 10° NNW 05:21:48 86° ENE 05:27:04 10° SSE
Lacrosse 5 1.8 05:21:27 25° SW 05:24:30 86° SE 05:29:36 10° NE
SKYMED 2 3.5 05:22:12 10° SSE 05:26:32 85° WSW 05:30:55 10° NNW
Cosmos 407 Rocket 3.9 05:22:35 10° NW 05:27:32 39° WSW 05:32:27 10° S
Lacrosse 5 rocket 3.0 05:25:35 14° NNW 05:27:53 23° NNE 05:30:50 10° ENE
SL-08 R/B 4.5 05:23:10 10° N 05:29:30 85° W 05:35:51 10° S
Cosmos 676 Rocket 4.1 05:24:56 10° NNW 05:30:04 52° WSW 05:35:12 10° S
Okean 2 Rocket 2.9 05:28:57 10° NNW 05:33:22 77° W 05:37:44 10° S
S3M 4.0 05:34:10 10° S 05:40:31 85° W 05:46:51 10° N
Meteor 1-14 Rocket 4.3 05:35:07 10° NNW 05:40:50 56° W 05:46:23 10° S
Meteor 1-20 Rocket 4.2 05:35:36 10° NNW 05:41:22 86° W 05:47:00 10° S
CZ-4B R/B 4.3 05:37:10 10° N 05:41:31 24° WNW 05:43:24 20° W
ERS-2 3.9 05:39:44 10° NNW 05:41:25 16° NW 05:41:25 16° NW
ATLAS 5 CENTAUR R/B 2.3 05:40:35 22° WSW 05:43:28 46° NW 05:48:35 10° NNE
Cosmos 1553 Rocket 3.9 05:42:56 10° SSW 05:49:05 71° W 05:55:24 10° N
Cosmos 1703 Rocket 4.1 05:46:29 10° SW 05:50:29 36° WNW 05:54:33 10° N
Cosmos 1943 Rocket 2.6 05:46:13 14° WSW 05:50:31 40° NW 05:55:46 10° NNE
Cosmos 1782 2.9 05:47:31 10° S 05:51:28 81° E 05:55:28 10° N
Cosmos 1140 Rocket 3.6 05:46:29 10° NNW 05:51:35 54° WSW 05:56:40 10° S
Cosmos 2151 Rocket 3.7 05:47:41 10° N 05:52:14 82° E 05:56:44 10° S
Meteor 2-10 Rocket 3.7 05:47:56 10° SW 05:52:42 44° WNW 05:57:32 10° N
Meteor 1-28 Rocket 3.3 05:52:04 10° S 05:55:42 52° W 05:59:22 10° NNW
Cosmos 1633 3.4 05:58:21 10° N 06:01:57 54° ENE 06:05:30 10° SSE
Cosmos 614 Rocket 4.0 05:58:02 10° NNW 06:03:01 56° WSW 06:08:00 10° S
CSL-04 Rocket 3.9 05:59:07 10° NNE 06:04:30 77° ESE 06:09:55 10° S
BREEZE M DEB (TANK) 3.8 05:52:58 14° W 06:04:31 68° NNW 06:08:33 10° ENE
Cosmos 1602 4.4 06:03:34 10° N 06:07:30 61° E 06:11:25 10° SSE
IDEFIX/ARIANE 42P 3.4 06:05:50 10° NNE 06:11:01 56° E 06:16:07 10° S
Cosmos 1850 Rocket 4.1 06:06:48 10° NNW 06:12:03 57° WSW 06:17:13 10° S
Meteor 2-6 Rocket 4.1 06:07:02 10° S 06:12:26 89° WNW 06:17:52 10° N
PAYLOAD A 4.0 06:07:57 10° NNE 06:12:41 80° ESE 06:17:29 10° S
COSMO-SKYMED 1 3.5 06:11:04 10° SSW 06:14:46 27° W 06:18:29 10° NW
Meteor 2-11 Rocket 4.4 06:09:14 10° SSW 06:15:19 74° W 06:21:29 10° N
CZ-4 R/B 2.4 06:12:26 10° NNE 06:16:34 54° E 06:20:37 10° S
Cosmos 1606 2.7 06:13:17 10° SSW 06:17:08 66° W 06:21:02 10° N
Cosmos 1709 Rocket 4.0 06:11:15 10° N 06:17:24 89° E 06:23:32 10° S
CZ-2C R/B 3.0 06:13:22 10° NNE 06:18:12 63° ESE 06:23:09 10° S
SMAP 4.1 06:17:18 10° NNE 06:21:52 53° E 06:26:24 10° S
Cosmos 2297 Rocket 2.9 06:17:42 10° NNW 06:23:17 57° ENE 06:28:50 10° SE
Ariane Rocket 3.0 06:19:37 10° N 06:24:40 62° WNW 06:29:40 10° SSW
Cosmos 2315 Rocket 4.2 06:21:32 10° S 06:27:55 86° E 06:34:19 10° N
Cosmos 1420 Rocket 4.3 06:25:04 10° SW 06:30:01 45° WNW 06:35:01 10° N
Meteor 1-11 Rocket 3.9 06:24:34 10° NNW 06:30:35 81° W 06:36:29 10° S
CSL-04 Debris 4.2 06:26:42 10° NNE 06:32:07 74° WNW 06:37:29 10° SSW
